SCP
0 0 0 0 0 0 0 0 0 0 0 0 0 0 0 0 0 0 0 0 0 0 0 0 0 0 0 1 0 0 1 1 1 1 1 1 1 1 0 0 0 0 0
0 0 0 0 0 0 0 0 0 0 0 0 0 0 0 0 0 0 0 0 0 0 0 0 0 0 0 0 0 0 0 0 1 1 1 1 1 1 1 0 0 0 0
0 0 0 0 0 0 0 0 0 0 0 0 0 0 0 0 0 0 0 0 0 0 0 0 0 0 0 0 0 0 0 0 0 1 1 1 1 1 1 0 0 0 0
0 0 0 0 0 0 0 0 0 0 0 0 0 0 0 0 0 0 0 0 0 0 0 0 0 0 0 0 0 0 0 0 0 0 0 1 1 1 0 0 0 0 0
0 0 0 0 0 0 0 0 0 0 0 0 0 0 0 0 0 0 0 0 0 0 0 0 0 0 0 0 0 0 0 0 0 0 0 0 0 0 0 0 0 0 0
0 0 0 0 0 0 0 0 0 0 0 0 0 0 0 0 0 0 0 0 0 0 0 0 0 0 0 0 0 0 0 0 0 0 0 0 0 0 0 0 0 0 0
0 0 0 0 0 0 0 0 0 0 0 0 0 0 0 0 0 0 0 0 0 0 0 0 0 0 0 0 0 0 0 0 0 0 0 0 0 0 0 0 0 0 0
0 0 0 0 0 0 0 0 0 0 0 0 0 0 0 0 0 0 0 0 0 0 0 0 0 0 0 0 0 0 0 0 0 0 0 0 0 0 0 0 0 0 0
0 0 0 0 0 0 0 0 0 0 0 0 0 0 0 0 0 0 0 0 0 0 0 0 0 0 0 0 0 0 0 0 0 0 0 0 0 0 0 0 0 0 0
0 0 0 0 0 0 0 0 0 0 0 0 0 0 0 0 0 0 0 0 0 0 0 0 0 0 0 0 0 0 0 0 0 0 0 0 0 0 0 0 0 0 0
0 0 0 0 0 0 0 0 0 0 0 0 0 0 0 0 0 0 0 0 0 0 0 0 0 0 0 0 0 0 0 0 0 0 0 0 0 0 0 0 0 0 0
0 0 0 0 0 0 0 0 0 0 0 0 0 0 0 0 0 0 0 0 0 0 0 0 0 0 0 0 0 0 0 0 0 0 0 0 0 0 0 0 0 0 0
0 0 0 0 0 0 0 0 0 0 0 0 0 0 0 0 0 0 0 0 0 0 0 0 0 0 0 0 0 0 0 0 0 0 0 0 0 0 0 0 0 0 0
0 0 0 0 0 0 0 0 0 0 0 0 0 0 0 0 0 0 0 0 0 0 0 0 0 0 0 0 0 0 0 0 0 0 0 0 0 0 0 0 0 0 0
0 0 0 0 0 0 0 0 0 0 0 0 0 0 0 0 0 0 0 0 0 0 0 0 0 0 0 0 0 0 0 0 0 0 0 0 0 0 0 0 0 0 0
0 0 0 0 0 0 0 0 0 0 0 0 0 0 0 0 0 0 0 0 0 0 0 0 0 0 0 0 0 0 0 0 0 0 0 0 0 0 0 0 0 0 0
0 0 0 0 0 0 0 0 0 0 0 0 0 0 0 0 0 0 0 0 0 0 0 0 0 0 0 0 0 0 0 0 0 0 0 0 0 0 0 0 0 0 0
0 0 0 0 0 0 0 0 0 0 0 0 0 0 0 0 0 0 0 0 0 0 0 0 0 0 0 0 0 0 0 0 0 0 0 0 0 0 0 0 0 0 0
0 0 0 0 0 0 0 0 0 0 0 0 0 0 0 0 0 0 0 0 0 0 0 0 0 0 0 0 0 0 0 0 0 0 0 0 0 0 0 0 0 0 0
0 0 0 0 0 0 0 0 0 0 0 0 0 0 0 0 0 0 0 0 0 0 0 0 0 0 0 0 0 0 0 0 0 0 0 0 0 0 0 0 0 0 0
0 0 0 0 0 0 0 0 0 0 0 0 0 0 0 0 0 0 0 0 0 0 0 0 0 0 0 0 0 0 0 0 0 0 0 0 0 0 0 0 0 0 0
0 0 0 0 0 0 0 0 0 0 0 0 0 0 0 0 0 0 0 0 0 0 0 0 0 0 0 0 0 0 0 0 0 0 0 0 0 0 0 0 0 0 0
0 0 0 0 0 0 0 0 0 0 0 0 0 0 0 0 0 0 0 0 0 0 0 0 0 0 0 0 0 0 0 0 0 0 0 0 0 0 0 0 0 0 0
0 0 0 0 0 0 0 0 0 0 0 0 0 0 0 0 0 0 0 0 0 0 0 0 0 0 0 0 0 0 0 0 0 0 0 0 0 0 0 0 0 0 0
0 0 0 0 0 0 0 0 0 0 0 0 0 0 0 0 0 0 0 0 0 0 0 0 0 0 0 0 0 0 0 0 0 0 0 0 0 0 0 0 0 0 0
0 0 0 0 0 0 0 0 0 0 0 0 0 0 0 0 0 0 0 0 0 0 0 0 0 0 0 0 0 0 0 0 0 0 0 0 0 0 0 0 0 0 0
Wind_Speed
7 7 8 8 7 7 7 8 7 7 8 8 7 6 6 6 5 5 5 6 5 5 4 4 4 4 3 2 2 2 2 2 3 2 1 3 4 5 5 4 6 5 5
8 8 8 8 8 8 9 8 8 8 8 8 7 6 7 7 5 5 6 7 6 6 5 5 5 4 4 3 3 3 3 2 3 3 2 3 3 5 6 5 5 5 4
10 10 9 10 9 9 9 8 8 8 9 9 8 7 7 7 7 6 6 7 6 5 5 5 5 4 4 3 4 4 3 4 3 3 4 3 3 4 5 5 4 3 4
12 12 10 10 10 9 9 9 8 8 9 9 8 8 8 7 8 7 7 7 7 6 5 5 5 5 5 4 5 4 4 4 4 3 4 4 4 5 5 5 4 3 3
12 12 11 10 10 10 9 9 9 8 10 8 8 8 7 7 9 8 7 9 7 7 6 5 6 6 6 4 4 3 4 4 4 4 4 4 4 5 6 5 5 4 4
12 13 11 11 11 10 10 10 9 8 8 8 8 8 8 10 9 8 7 7 6 6 6 6 6 6 7 7 7 5 4 4 4 3 4 4 5 6 5 6 5 5 4
12 12 12 11 12 11 12 11 10 9 8 8 8 9 9 9 9 9 10 6 6 5 6 5 7 8 8 6 9 10 8 8 7 4 5 4 4 4 4 5 5 5 4
12 12 12 11 12 11 10 10 9 8 8 8 8 9 8 9 9 9 9 7 6 6 6 6 6 7 7 5 5 7 7 8 9 7 5 5 4 3 4 4 4 3 3
13 12 13 12 12 12 11 10 8 8 8 8 8 8 7 7 8 8 9 6 6 7 7 8 8 8 8 8 5 5 5 5 9 11 10 8 7 5 4 3 4 5 4
13 13 13 12 12 12 10 9 8 7 8 8 7 6 6 6 6 8 9 5 6 6 6 6 9 9 9 9 7 6 6 5 5 5 7 7 7 7 9 7 6 6 4
13 13 12 11 11 10 8 7 7 7 6 6 6 5 4 5 5 8 9 6 5 5 5 5 5 8 10 11 9 6 6 4 3 4 4 5 6 6 7 7 7 6 6
13 13 12 11 11 9 8 7 7 6 6 5 4 4 2 2 4 6 9 9 6 4 4 3 3 6 9 10 9 7 6 4 3 4 4 5 5 6 6 7 8 7 6
13 12 11 11 9 8 7 7 5 4 3 3 3 2 1 1 1 3 7 8 8 5 3 1 3 6 7 8 10 9 7 5 5 6 6 6 5 6 5 5 5 5 5
13 12 10 9 9 7 5 5 4 4 4 3 3 2 1 1 1 0 2 4 6 6 5 4 6 7 6 6 6 7 7 6 6 6 6 5 4 5 5 5 5 5 5
12 11 10 9 7 6 5 4 4 3 3 4 4 3 2 2 2 2 1 0 1 2 3 4 4 5 6 6 6 6 7 7 7 6 5 5 5 5 5 5 5 6 6
11 10 8 7 6 6 5 3 3 2 1 2 3 3 2 2 2 2 2 2 2 1 2 3 4 4 5 6 6 6 7 7 7 6 6 5 5 5 5 5 5 6 6
10 9 7 7 7 6 5 4 2 0 1 1 2 2 1 1 1 1 2 3 3 2 3 4 4 4 5 5 5 6 6 6 6 6 6 6 5 5 5 6 6 6 6
10 8 7 6 7 6 5 5 3 2 1 1 2 2 2 2 2 2 1 2 3 3 4 5 4 4 4 3 4 4 4 4 5 5 5 6 6 5 6 6 6 7 7
9 7 7 7 6 6 5 5 4 4 3 1 1 2 3 4 4 4 3 4 4 3 4 3 3 3 3 3 3 3 3 4 4 5 5 6 6 6 6 7 6 8 7
7 8 8 7 6 6 6 6 5 4 3 3 2 1 1 3 3 3 4 4 3 3 3 3 3 3 2 2 2 3 3 3 4 5 5 5 5 5 7 7 7 7 6
7 7 9 7 6 6 6 6 6 5 4 3 3 2 3 3 3 2 2 2 2 2 2 2 3 3 3 2 2 3 4 3 3 4 4 5 5 5 5 5 6 6 6
7 6 6 6 6 6 7 6 5 4 4 4 2 1 3 3 2 2 1 0 1 2 2 2 2 1 1 2 2 3 3 3 3 3 4 5 5 5 5 5 5 5 6
7 7 6 6 6 6 6 6 5 5 5 4 4 3 3 3 3 3 3 2 1 0 0 1 1 0 0 1 2 2 3 3 4 5 6 5 5 5 6 6 6 6 7
7 7 7 6 6 5 5 6 5 5 5 5 4 4 3 3 4 5 4 4 3 3 2 2 2 3 4 3 3 3 3 4 4 4 7 6 6 6 6 6 6 7 7
6 6 6 6 6 5 5 6 6 6 5 5 5 5 5 4 4 5 4 4 4 4 5 4 4 4 6 6 6 5 5 5 4 3 5 5 7 7 6 7 6 7 7
5 5 5 5 5 5 5 6 6 6 6 6 5 5 5 5 4 4 4 4 5 5 5 5 7 8 7 7 8 8 6 5 4 3 4 5 6 6 6 6 8 8 9
Wind_Direction
324 321 315 310 306 303 298 294 294 295 294 287 280 277 269 256 241 235 237 229 225 224 230 229 229 227 222 243 263 257 246 229 220 228 177 143 144 141 152 151 151 165 171
327 321 314 311 308 305 301 299 299 295 290 287 279 270 268 262 245 235 244 244 228 223 225 226 229 233 223 225 231 249 252 243 221 216 188 163 165 155 160 168 175 179 154
326 323 320 316 313 308 303 298 295 292 289 285 278 270 261 260 253 238 241 250 246 232 226 226 225 224 225 229 226 227 236 245 227 209 201 183 183 180 166 177 183 157 157
324 320 317 315 311 309 305 299 292 287 282 278 274 269 261 254 251 244 240 241 241 236 232 230 230 226 222 224 235 228 227 235 236 224 204 191 191 187 173 175 174 166 175
320 316 314 313 310 306 304 298 292 288 284 281 278 272 268 258 247 238 232 237 229 227 228 227 230 228 223 217 236 223 229 228 225 224 214 197 199 187 188 187 181 169 178
317 313 312 310 308 303 300 295 292 288 284 282 279 274 266 260 253 238 235 242 226 221 229 229 229 226 220 216 214 209 207 227 235 230 227 209 203 200 193 194 180 174 179
314 312 312 313 311 308 307 307 302 297 290 281 275 271 264 260 254 239 230 238 231 220 225 228 241 237 213 209 211 211 215 220 216 224 243 240 218 201 191 193 188 183 177
317 317 317 316 314 311 307 303 300 299 291 282 278 273 264 258 245 229 220 229 236 226 222 218 225 241 240 225 225 217 210 210 208 209 223 239 246 222 194 199 190 169 141
324 323 321 317 313 310 307 305 301 295 289 282 278 268 260 249 233 222 211 229 233 232 230 224 221 223 224 220 223 233 231 226 219 212 206 216 227 217 188 172 171 165 169
327 322 319 316 312 309 306 304 300 293 287 284 277 272 260 247 223 214 212 230 233 234 235 233 232 228 213 210 213 219 229 233 240 221 208 214 219 216 200 190 187 180 172
324 320 319 316 311 305 306 305 302 297 291 287 282 278 262 245 221 210 207 226 234 231 233 225 220 211 203 205 209 214 223 230 242 241 221 206 206 206 203 196 194 190 186
325 322 320 319 318 319 316 312 308 303 301 300 296 289 273 236 216 209 207 219 241 253 246 228 197 190 193 200 208 214 205 206 234 236 228 214 208 204 201 196 194 195 193
326 323 321 322 321 319 319 320 319 321 321 321 317 302 293 272 208 210 208 217 230 246 268 202 171 186 186 199 214 210 202 212 225 228 227 220 210 204 191 184 181 176 175
327 325 325 325 327 331 333 332 341 345 341 338 338 338 337 348 24 224 211 211 218 227 237 218 193 196 211 223 204 205 212 221 220 223 224 218 206 194 185 176 175 167 159
328 328 330 329 330 330 338 347 348 17 358 335 339 346 359 18 23 1 330 264 240 236 230 212 213 206 211 216 215 209 209 212 218 222 221 213 205 195 184 174 172 167 168
328 330 331 330 330 332 333 351 28 12 4 357 354 350 31 61 61 28 25 3 328 317 248 228 230 232 230 223 217 215 214 215 212 207 209 209 205 194 179 173 170 170 169
329 330 332 334 336 336 339 338 330 240 237 298 332 355 359 359 19 358 342 319 296 255 238 243 239 236 238 231 222 218 217 214 207 204 203 200 195 187 175 173 173 170 168
333 335 337 337 338 340 343 342 346 347 335 183 211 238 260 267 266 270 289 296 254 229 242 247 243 240 242 235 227 223 216 207 200 200 197 194 191 184 177 174 173 171 167
335 339 340 335 333 341 345 351 355 359 359 11 125 173 232 241 251 260 248 246 261 256 243 241 243 246 244 231 223 220 205 199 199 195 191 186 185 181 179 176 172 167 166
332 334 333 334 339 351 353 355 353 355 1 12 26 38 167 226 244 226 220 236 250 259 252 243 240 242 246 226 203 205 204 198 197 190 184 177 176 176 176 170 167 166 168
336 338 338 341 353 357 355 357 355 351 358 10 24 24 338 310 303 288 235 225 229 253 269 265 246 236 231 212 195 195 192 182 181 177 168 163 162 164 165 160 159 160 161
331 338 347 351 354 358 350 347 351 357 6 9 4 5 328 317 336 332 321 240 205 229 257 253 252 238 211 206 190 179 177 171 167 160 151 150 151 155 157 152 152 156 158
337 347 350 351 353 353 349 356 4 7 10 8 8 7 359 358 0 2 7 22 37 73 1 2 3 21 143 146 150 156 163 164 156 149 146 145 148 151 148 148 154 159 160
339 348 347 350 356 357 356 356 2 10 12 4 2 12 14 9 11 20 24 22 32 45 46 61 67 70 81 74 78 86 94 108 120 135 143 147 150 148 147 149 155 160 158
343 348 349 352 354 355 357 2 8 14 17 14 8 9 15 17 21 26 30 34 40 49 58 67 64 68 81 84 80 80 74 79 97 130 149 148 144 143 146 148 152 155 154
353 357 355 356 359 360 3 6 11 17 17 18 12 4 6 16 21 25 34 37 40 45 53 63 68 68 74 82 84 86 82 77 81 106 135 141 141 148 151 151 153 154 155